Wind_Speed
54 53 52 51 50 48 47 46 45 44 43 43 42 41 40 39 39 38 37 37 37 36 36 35 35 34 33 32 32 31 31 31 30 29 29 28 27 27 26 26 26 25 25 25 25 24 24 24 24 24 23 23 22 22 21 20 19 18 18 17 17 16 16 17 17 18 19 17 18 19 20 20 19 21 21 20 21 18 18 19 19 19 20 18 18 18 18 19
56 55 54 53 52 50 49 48 46 46 45 44 44 43 42 41 41 40 39 39 39 38 38 37 36 36 35 34 33 32 32 32 31 30 30 29 28 28 27 27 27 26 26 26 26 25 25 25 24 24 24 23 23 22 21 19 19 18 18 17 16 17 17 16 16 18 19 18 18 18 20 21 19 21 22 21 21 19 17 19 19 20 20 19 19 19 19 20
58 57 56 55 54 53 51 50 49 48 47 46 46 44 44 43 42 42 41 41 40 40 39 39 38 37 36 35 34 33 33 33 32 31 30 30 29 29 28 28 28 28 27 27 26 26 26 25 25 24 24 24 23 22 21 20 19 18 18 17 17 18 18 16 16 19 19 19 19 19 20 21 20 21 22 22 22 20 19 19 20 21 21 20 20 20 20 20
60 59 58 57 57 56 54 53 52 50 49 49 48 46 45 45 44 43 43 42 42 41 41 40 39 38 37 36 35 34 34 33 33 32 31 31 30 30 30 29 29 28 28 27 27 26 26 26 25 25 24 24 24 23 21 20 20 19 19 17 17 18 18 17 17 19 20 20 20 20 20 21 22 22 22 23 23 22 21 20 20 21 22 21 21 21 21 21
61 61 60 59 58 57 57 55 54 53 52 51 50 48 47 46 45 44 44 43 43 42 42 41 40 39 38 37 36 35 35 34 34 33 32 32 32 31 31 30 29 29 29 28 28 27 27 26 26 25 25 25 24 23 22 21 21 21 19 17 18 19 18 18 18 19 20 21 21 20 21 22 23 23 23 23 24 23 23 21 21 21 22 22 22 22 22 22
63 62 61 61 60 59 58 57 56 55 54 53 52 50 49 48 47 46 45 45 44 44 43 42 41 40 39 38 37 36 36 36 35 34 34 33 33 32 32 31 30 30 30 29 29 28 27 26 26 25 25 25 24 23 23 23 22 22 20 18 19 20 18 18 19 20 20 21 22 21 22 23 23 24 24 24 24 25 24 23 22 22 22 23 23 23 23 23
64 64 63 62 61 60 60 59 58 57 56 55 53 52 51 50 49 48 47 47 46 45 45 44 43 41 40 39 38 38 38 38 37 36 36 35 34 34 33 32 31 31 31 30 30 29 28 27 27 26 26 26 25 24 24 23 23 22 20 19 20 21 20 19 20 21 21 22 23 23 23 24 25 25 26 25 25 26 25 25 24 23 23 23 23 23 23 24
66 65 65 64 63 62 61 60 59 59 58 56 55 54 53 52 51 50 49 49 48 47 46 45 44 43 42 41 40 40 40 40 38 38 37 37 36 35 34 33 33 32 32 32 31 30 29 28 27 27 27 26 25 25 24 24 24 22 21 20 20 21 21 20 20 21 22 23 23 24 24 25 26 26 27 26 25 27 27 26 26 25 25 24 24 24 24 25
68 67 67 66 65 64 63 62 61 60 59 58 57 56 55 54 53 52 51 50 49 48 48 47 45 45 43 43 42 42 42 42 40 39 39 38 38 37 36 35 34 34 34 33 32 32 31 30 29 29 28 27 27 26 25 25 24 23 23 22 21 22 22 21 21 22 23 23 23 23 24 27 27 27 28 26 26 28 27 27 27 27 26 26 26 26 26 27
70 69 68 68 67 66 66 65 63 62 61 60 59 58 57 56 55 54 53 52 51 49 49 48 47 46 44 44 44 43 44 43 41 41 40 40 39 38 37 36 36 36 35 35 35 34 33 32 31 30 30 29 28 28 27 26 25 25 25 24 22 22 22 22 22 22 23 23 22 22 24 28 28 28 30 27 26 28 28 28 28 28 28 27 27 27 28 28
72 71 70 69 69 68 67 67 66 65 63 62 61 60 59 58 57 56 55 53 52 51 50 49 48 47 45 45 44 44 45 43 42 43 42 41 40 39 39 38 38 37 37 37 36 36 36 35 33 33 32 31 31 30 28 28 28 27 26 25 24 23 24 24 23 23 24 22 21 21 24 28 28 28 30 28 27 28 29 29 29 29 29 29 29 29 29 30
73 73 72 71 70 70 69 68 68 67 66 65 63 62 61 60 59 58 57 55 54 52 51 50 49 48 47 46 46 45 46 45 44 44 43 43 41 41 40 39 39 39 39 39 38 38 38 37 36 35 35 33 33 32 30 30 30 29 28 27 25 24 26 27 25 25 24 23 21 20 25 28 27 28 29 28 28 28 29 30 30 30 30 29 30 30 31 31
73 73 74 74 72 71 71 70 70 69 68 67 66 65 64 62 61 60 59 58 56 55 53 52 50 49 48 47 47 47 47 47 46 46 45 44 43 42 41 41 41 40 41 40 40 39 39 39 39 38 37 35 35 34 32 32 32 31 30 29 27 25 29 30 28 26 24 23 23 22 25 28 27 28 29 28 28 28 29 31 31 30 29 30 30 30 31 31
74 73 73 74 74 74 73 72 71 71 70 69 68 67 66 65 64 62 61 60 58 57 55 54 52 51 49 48 49 48 48 48 48 48 47 45 44 44 44 43 42 42 42 41 41 41 41 41 40 40 39 37 37 36 35 34 35 34 31 31 29 28 31 33 30 27 25 24 24 23 25 28 28 28 29 28 28 28 29 31 31 30 29 30 30 30 30 31
75 75 73 73 73 74 75 75 74 73 72 71 70 69 68 67 66 65 64 62 61 60 58 56 55 53 51 51 51 51 50 50 50 50 48 46 46 46 46 45 44 44 43 42 42 42 42 42 42 41 41 40 39 39 38 37 37 36 33 32 32 32 33 34 33 30 28 27 25 23 25 29 30 29 29 29 28 28 29 30 30 30 29 29 30 30 30 31
76 76 75 74 73 73 74 75 75 74 73 72 72 71 70 69 68 67 66 65 64 62 60 59 57 56 54 54 54 53 53 53 52 51 49 48 49 49 48 46 46 45 45 44 44 44 43 43 43 43 43 42 42 42 40 38 39 38 34 34 35 35 35 36 35 33 31 30 27 24 25 29 30 30 31 30 29 28 29 30 30 30 30 30 30 31 31 31
78 77 76 76 75 74 74 74 75 75 74 74 73 71 71 70 69 68 68 67 65 64 62 60 59 58 56 56 56 57 57 55 53 51 50 51 51 51 49 48 48 47 46 46 46 46 45 44 44 44 44 45 45 44 40 38 40 39 36 37 38 38 37 37 37 36 34 31 30 27 27 29 29 31 32 31 30 30 30 30 31 31 30 31 31 32 32 32
77 78 78 77 76 76 75 75 75 75 75 74 73 72 72 71 71 70 69 68 66 65 63 62 61 59 58 58 59 60 59 56 54 52 52 53 53 53 51 50 49 48 48 48 47 47 46 45 45 45 46 49 48 45 41 39 41 40 38 38 39 41 40 39 37 37 36 34 32 30 29 30 30 31 33 32 31 32 32 32 32 32 31 32 33 33 33 34
75 78 79 79 78 77 76 75 75 75 74 74 73 73 73 72 71 70 70 69 67 66 65 64 63 61 59 60 61 60 59 57 55 55 55 55 54 54 53 52 51 50 49 50 49 48 47 46 46 47 50 51 49 45 42 41 42 42 40 39 40 42 42 42 39 36 37 37 36 33 31 31 32 31 32 33 33 34 34 33 33 34 33 33 34 34 35 35
73 75 78 79 80 78 77 76 76 75 74 73 73 73 73 72 72 71 70 70 69 69 68 66 65 63 61 61 61 61 61 60 57 57 57 56 56 56 55 54 53 52 52 52 51 49 49 47 47 52 54 51 47 45 44 44 44 43 42 41 41 42 43 43 41 38 38 37 37 36 33 33 34 33 33 35 36 36 36 35 35 36 35 35 35 35 36 37
77 75 75 77 79 80 78 77 77 76 75 74 73 73 73 73 73 72 72 71 71 71 69 67 66 65 62 62 62 63 63 61 60 59 58 57 57 57 56 55 55 55 55 53 51 50 51 48 50 55 55 50 48 47 46 46 45 44 43 43 42 43 44 44 42 41 40 37 37 37 34 34 36 35 35 37 38 39 39 38 37 37 37 37 38 38 38 39
83 79 76 75 76 78 79 78 77 76 75 74 74 74 74 74 74 74 73 73 72 71 70 68 67 65 63 63 63 64 63 62 62 61 59 57 57 56 56 56 56 57 57 54 52 52 51 50 54 57 54 51 49 48 48 48 46 46 45 44 44 45 46 45 44 42 40 38 38 38 34 34 37 37 37 38 40 42 42 41 40 39 40 40 40 41 41 41
87 84 80 77 75 76 77 79 78 76 74 74 75 76 76 76 76 75 75 74 73 72 70 68 67 65 64 63 63 63 62 61 62 61 60 58 58 58 57 57 58 59 57 55 54 54 52 53 56 56 53 53 52 51 50 49 48 47 47 45 46 48 47 45 45 43 41 39 39 39 35 34 38 39 39 40 41 44 45 43 42 41 42 43 43 43 43 44
89 88 85 81 78 76 75 77 78 76 75 75 75 76 77 77 77 77 76 76 74 72 70 69 67 64 62 62 62 62 61 60 60 61 60 59 60 59 58 59 60 58 58 58 58 55 53 55 56 54 55 55 54 53 53 52 49 48 48 48 48 49 48 46 45 44 43 41 40 40 36 35 40 41 41 44 44 45 46 45 44 43 43 44 45 45 45 45
89 90 89 85 82 78 76 75 73 74 77 78 78 77 77 77 76 77 78 78 75 72 71 70 67 63 61 62 62 61 62 61 60 61 61 62 62 61 60 61 60 59 60 61 60 56 53 56 56 55 56 57 56 54 54 54 52 50 49 49 50 50 48 46 45 44 43 42 43 42 37 34 40 43 44 48 48 47 47 47 47 45 44 46 46 45 46 46
90 91 92 90 87 82 78 74 71 73 76 77 79 80 79 78 78 78 79 80 76 70 70 70 67 64 62 62 61 63 64 61 60 62 62 62 63 63 63 62 61 61 63 64 61 56 53 57 58 56 57 58 57 56 56 57 54 51 50 52 52 50 48 47 47 46 43 42 43 43 40 36 37 44 48 49 49 50 51 51 49 45 45 47 47 47 47 47
91 91 93 93 92 88 82 76 74 75 74 75 79 80 80 79 80 80 81 83 77 68 68 69 67 65 63 63 64 66 65 59 61 64 62 63 65 66 65 63 63 63 65 67 62 55 54 58 59 58 58 57 57 58 60 59 55 52 52 54 52 50 49 48 48 48 45 43 41 42 45 40 36 43 51 51 50 53 55 54 50 47 46 47 48 48 48 48
93 92 92 93 94 93 88 83 80 77 74 75 77 78 78 79 81 82 84 87 78 68 68 69 67 66 65 65 65 66 64 60 62 64 63 65 66 66 66 65 66 66 67 67 61 56 57 58 58 59 60 58 58 60 62 61 56 53 53 54 53 52 51 49 49 48 46 44 39 40 48 46 38 41 49 51 54 57 57 54 52 50 48 47 48 48 48 48
95 95 94 93 94 94 91 88 84 81 80 79 79 79 79 79 80 81 86 87 76 67 69 69 68 68 67 67 67 66 65 63 62 63 64 66 66 66 67 67 68 68 67 67 62 60 59 58 58 60 61 60 61 62 61 60 57 54 55 55 54 53 51 50 48 47 46 43 39 44 52 51 41 38 44 50 56 59 58 56 54 51 48 48 48 48 48 48
96 96 96 96 93 92 92 89 87 87 86 86 86 85 85 84 83 84 87 83 70 64 69 69 65 65 66 67 68 67 67 66 65 65 65 66 66 67 67 68 69 68 67 66 64 62 61 60 60 60 61 62 63 62 61 60 57 56 56 55 55 53 51 49 46 47 46 43 43 49 54 52 42 36 41 49 55 58 58 57 56 52 50 49 49 48 48 49
97 97 97 97 95 93 92 90 89 90 90 91 91 91 91 90 91 92 90 79 68 67 73 72 64 62 64 66 68 69 69 69 68 68 67 67 67 67 67 68 69 69 68 66 64 64 64 63 61 60 61 62 63 63 62 61 59 58 57 55 55 53 50 48 47 48 48 44 47 52 54 51 41 35 42 48 52 55 57 57 56 53 51 50 50 50 50 50
99 98 98 97 97 97 94 91 91 93 94 95 95 94 93 94 97 97 87 76 72 73 77 75 68 65 67 69 71 72 72 71 71 70 70 69 69 67 67 67 68 69 68 65 66 66 65 63 62 61 61 61 63 64 64 63 61 60 56 54 54 52 50 48 48 50 49 47 49 52 52 48 40 38 44 47 49 52 55 57 55 52 51 51 51 51 50 50
102 100 99 97 95 96 96 95 95 95 97 98 98 98 97 99 99 93 82 76 76 76 75 76 73 72 75 76 75 73 72 72 72 72 72 72 72 69 68 67 66 67 66 66 67 66 64 63 62 62 62 63 64 64 64 63 62 59 56 56 55 52 50 49 50 52 50 48 50 51 50 45 39 41 46 47 48 50 53 55 54 51 51 50 50 50 50 50
105 103 102 99 96 95 97 99 98 98 98 99 100 102 102 102 99 90 82 78 78 76 74 75 76 78 81 80 78 76 75 74 74 74 74 73 72 69 68 68 67 67 68 68 66 65 63 62 62 64 65 65 64 64 64 64 62 59 58 57 53 52 54 52 52 53 51 50 51 50 48 43 41 43 45 46 49 51 53 53 52 51 51 50 50 50 51 51
106 106 104 102 100 97 96 98 100 101 101 101 102 105 106 104 97 90 85 81 81 80 78 78 80 80 81 81 79 78 78 77 76 76 75 73 71 69 70 70 70 71 71 69 66 65 64 62 62 65 66 65 66 65 64 64 62 59 58 56 54 57 60 57 54 54 54 52 51 50 48 45 44 44 43 45 49 52 54 54 53 53 52 53 53 52 53 52
106 108 107 105 103 100 98 98 99 101 103 104 107 109 108 102 94 91 89 86 86 87 85 85 85 83 83 82 80 78 78 77 77 77 75 74 72 71 71 71 72 73 72 71 70 69 68 65 63 65 65 66 66 66 65 65 63 61 59 58 59 62 61 58 57 56 57 55 51 49 49 47 47 45 44 47 51 53 56 56 55 55 55 55 55 55 55 55
107 107 108 107 105 104 103 102 101 101 104 106 109 110 107 101 96 93 92 91 93 95 94 92 90 87 86 84 81 79 79 79 79 78 76 76 75 73 73 73 74 75 73 75 76 74 72 69 66 65 65 66 67 67 66 65 64 62 60 61 63 63 61 61 61 60 61 59 53 50 49 48 47 45 47 51 53 54 57 58 58 58 58 58 58 58 58 58
110 108 107 106 105 106 106 106 105 105 106 108 109 108 106 101 97 95 94 94 96 100 100 96 93 91 89 87 85 83 82 82 82 81 79 79 77 74 73 74 75 76 76 79 80 78 76 73 69 67 66 67 68 67 65 63 63 63 63 63 64 64 63 64 65 63 64 63 57 53 51 49 48 49 52 55 55 56 58 60 62 63 62 62 61 61 61 61
112 112 109 104 103 105 106 108 110 111 112 113 111 106 103 98 94 95 96 97 98 101 101 98 96 95 93 91 89 87 86 85 84 84 83 83 80 75 75 76 76 77 79 81 81 80 79 76 72 69 69 70 69 67 66 65 67 68 66 65 65 65 65 66 67 66 66 66 62 58 55 51 51 54 56 56 56 58 60 62 65 66 66 66 65 64 63 63
114 115 111 106 104 105 105 107 111 115 116 116 113 105 99 97 96 95 95 95 97 99 98 96 97 99 98 95 93 91 90 89 88 87 85 84 81 78 77 77 78 79 82 84 84 83 82 80 77 74 74 73 71 70 71 73 73 72 70 68 68 68 69 69 68 67 68 68 66 65 60 53 53 56 57 58 59 61 63 65 66 68 68 68 67 66 65 65
116 115 111 108 108 108 108 109 112 116 118 118 114 106 101 100 99 98 97 96 97 96 96 95 96 99 99 98 97 95 94 93 91 89 87 83 80 78 78 79 80 82 85 87 86 85 85 84 82 79 77 75 74 76 77 77 76 74 73 72 71 72 73 73 71 69 71 71 69 70 63 53 54 58 58 59 62 63 64 66 67 68 69 69 69 68 67 66
118 116 111 109 110 111 112 113 114 116 118 117 114 109 106 104 101 99 99 100 101 99 97 96 96 96 97 97 98 98 97 96 94 92 89 84 81 79 79 81 84 87 89 90 88 87 88 88 85 82 79 78 78 79 78 77 77 76 75 73 74 75 75 76 75 73 74 72 69 72 64 52 53 59 60 61 63 64 64 65 67 69 70 71 71 70 69 68
118 117 113 110 111 112 114 115 116 117 116 115 113 112 111 109 106 104 101 101 102 103 102 100 98 97 96 95 97 98 98 99 97 95 91 88 86 84 84 84 85 87 89 89 87 88 90 90 88 84 82 81 80 79 78 77 76 75 74 74 76 77 77 79 78 76 75 71 69 73 65 54 55 61 63 65 66 65 65 66 68 69 70 72 73 72 71 69
118 116 114 112 111 113 115 116 116 116 114 113 113 113 113 111 111 109 106 102 99 99 101 102 101 100 98 97 97 97 98 98 97 95 94 92 90 89 90 90 89 88 88 87 86 88 90 90 88 86 84 82 80 78 75 73 73 73 73 74 75 75 78 79 79 79 77 71 71 73 64 57 61 65 66 67 68 68 68 68 69 70 71 72 72 72 71 70
118 116 115 113 113 114 114 114 115 115 115 115 114 114 114 113 113 111 110 107 103 99 98 98 99 99 99 99 99 98 97 96 94 93 94 94 92 91 92 92 92 91 90 89 89 90 90 89 88 86 84 81 77 74 72 73 75 76 74 73 72 73 75 77 78 80 76 71 73 73 65 63 67 68 68 70 70 70 70 71 71 71 72 72 72 73 73 74
120 117 114 113 114 115 114 113 115 116 116 115 115 115 115 115 115 114 113 113 110 106 102 99 98 98 99 99 99 99 97 94 92 92 91 91 91 91 91 91 90 89 90 90 91 91 91 90 89 86 84 81 77 77 77 78 78 76 74 73 73 73 74 76 77 74 72 74 74 70 68 69 69 71 72 72 72 72 73 74 74 74 75 74 74 74 75 75
124 120 116 113 114 115 115 114 115 116 115 114 115 114 114 114 115 116 116 116 115 113 111 107 105 103 101 98 97 96 95 94 93 92 90 89 88 88 88 88 87 87 88 90 90 91 91 90 88 86 85 82 80 82 83 81 79 77 76 76 75 75 76 77 75 71 73 77 71 66 70 71 69 72 75 74 74 75 76 76 76 77 77 76 76 76 76 75
130 124 119 116 116 116 115 113 114 115 114 114 115 114 113 113 113 113 112 112 113 115 115 114 111 108 104 100 99 98 97 97 96 93 90 89 87 86 86 87 87 86 87 88 89 91 92 90 88 88 88 86 84 85 85 83 82 80 79 78 77 78 79 78 76 74 77 78 70 68 72 71 69 73 75 76 78 78 77 78 78 78 78 78 78 78 78 77
135 129 123 120 119 117 114 113 113 115 115 115 116 115 115 115 113 110 108 106 107 109 111 111 109 105 104 103 104 104 102 100 98 94 91 90 89 88 88 88 88 87 87 87 89 92 93 91 89 91 92 89 88 88 87 86 85 83 81 80 79 79 79 80 79 78 79 78 74 74 76 72 71 74 75 78 81 79 79 79 78 79 80 80 80 80 79 79
138 134 128 124 122 118 115 113 114 116 118 118 117 116 116 117 114 112 110 108 106 106 106 105 102 101 101 103 105 107 105 102 99 97 95 95 94 92 91 91 90 88 88 88 89 92 94 94 93 94 94 91 88 88 89 88 87 86 85 83 80 80 81 83 82 81 83 82 79 81 81 75 74 77 79 81 82 81 80 80 79 80 80 81 82 81 80 80
139 138 134 129 124 120 117 117 118 120 121 121 120 117 117 117 115 113 113 111 110 108 107 105 101 100 102 103 105 104 102 101 100 99 99 99 98 96 95 94 93 92 91 90 90 91 94 95 95 96 96 92 88 91 93 92 92 92 89 84 82 84 86 87 85 85 87 85 84 86 84 78 78 83 84 83 83 83 83 83 83 82 82 83 83 82 81 80
138 140 139 134 128 123 120 120 122 124 125 124 122 120 119 118 117 115 115 114 112 110 109 106 104 103 104 104 102 100 98 99 101 101 101 101 100 99 98 97 96 95 94 93 92 92 93 94 94 96 98 95 92 95 96 96 98 97 90 85 87 90 91 90 88 88 88 88 89 89 86 83 84 86 84 85 86 86 86 85 85 84 84 85 84 84 84 83
Wind_Direction
219 220 221 222 222 222 223 223 224 225 225 226 227 227 228 228 229 229 229 230 231 232 233 234 234 236 237 238 240 241 242 244 245 246 247 248 250 251 253 255 256 257 258 259 260 260 261 262 264 265 267 269 270 271 273 275 276 277 276 275 276 274 270 270 271 271 271 271 270 272 272 272 272 273 271 270 268 267 265 265 262 261 261 261 262 265 269 272
220 220 221 221 222 223 223 224 224 225 226 227 227 228 228 229 230 230 231 231 232 233 234 235 235 236 237 239 240 241 242 243 244 245 245 246 248 249 251 253 254 256 257 258 259 260 261 262 263 265 267 269 270 272 274 276 278 278 277 277 277 274 271 269 270 269 269 269 268 269 270 272 271 271 272 271 269 269 264 263 263 261 261 261 260 261 263 267
221 221 221 222 222 223 223 224 224 225 226 227 228 228 229 230 230 231 232 232 233 234 235 235 236 237 238 239 240 241 242 242 243 244 245 245 247 248 250 252 254 255 257 258 259 260 261 262 264 266 268 270 272 274 276 278 279 279 278 279 277 275 273 271 269 269 269 267 266 266 268 270 269 269 271 271 271 270 264 262 262 261 260 260 259 259 260 263
223 222 222 222 223 223 223 224 225 225 226 227 228 229 230 230 231 232 233 234 235 235 236 236 236 237 237 238 239 240 241 242 244 244 246 246 247 248 250 252 254 255 257 258 259 260 262 263 265 267 269 272 273 276 279 280 280 279 278 279 278 275 274 272 269 268 269 268 266 265 266 268 269 268 269 270 271 270 266 263 261 261 261 260 258 258 258 259
225 225 224 224 224 224 224 225 225 226 227 228 229 229 230 231 232 233 234 235 236 236 237 237 237 238 238 239 240 241 242 244 245 246 247 248 248 250 251 253 254 256 257 259 260 261 263 265 266 268 270 272 274 277 279 280 279 279 279 280 278 275 273 272 270 268 268 268 267 266 266 267 268 269 269 269 270 269 266 264 260 260 262 261 259 258 257 258
228 227 226 226 226 226 226 226 226 227 227 228 229 230 231 232 233 233 234 235 236 237 238 239 239 239 240 240 241 242 244 245 246 248 249 250 251 252 253 254 256 257 258 259 260 262 263 265 267 269 271 272 275 277 278 278 278 278 279 279 277 275 272 271 271 269 268 268 267 266 266 266 267 267 268 268 269 268 267 265 262 259 260 261 261 260 260 259
229 229 228 228 228 228 227 227 228 228 228 229 230 231 232 233 234 234 235 235 236 237 239 240 240 241 241 242 242 243 245 246 247 248 250 251 253 254 255 256 257 258 260 261 262 263 264 265 267 269 270 272 274 276 276 278 278 279 279 278 276 275 273 272 271 270 268 268 268 267 266 266 266 266 267 267 268 268 268 266 265 261 259 258 259 260 260 261
229 230 230 229 229 229 229 229 229 229 230 230 231 232 233 234 235 235 236 236 237 238 239 240 241 242 242 243 243 244 245 246 247 249 251 252 253 255 256 257 259 260 262 263 264 265 265 266 268 269 270 272 273 274 276 277 278 280 280 277 275 274 274 272 271 269 268 267 267 267 268 267 266 265 265 266 266 267 268 269 267 265 262 259 258 258 258 258
230 230 231 231 230 230 230 230 230 230 231 232 232 232 233 234 235 236 237 237 238 239 240 241 242 243 244 244 245 245 247 248 249 250 251 253 254 255 257 258 260 261 262 264 265 266 266 267 268 269 270 271 272 273 274 276 278 280 279 277 275 275 275 273 270 268 268 267 267 269 269 269 267 266 265 264 265 267 268 269 269 268 267 265 262 259 258 257
230 231 231 232 232 231 231 230 231 231 231 232 233 233 234 235 236 236 237 238 239 240 241 242 243 244 245 246 247 248 249 250 251 252 253 254 255 256 257 258 259 261 262 264 265 267 267 267 268 268 269 270 271 272 273 275 276 276 277 277 276 275 275 273 271 269 267 267 268 271 270 268 268 268 268 266 264 266 267 267 268 268 269 268 267 265 263 261
231 231 231 232 233 233 232 232 231 231 232 232 232 233 234 235 236 237 238 239 240 241 242 243 243 245 246 247 249 250 252 253 253 254 255 255 256 257 258 259 260 261 262 263 265 266 267 268 268 269 269 269 269 270 272 274 274 274 275 276 276 277 276 273 270 269 269 269 269 270 268 267 268 268 270 271 268 267 267 266 266 266 267 267 268 268 267 266
232 233 232 232 233 234 234 234 233 233 232 232 232 233 234 235 236 237 238 239 239 241 242 244 245 246 247 248 250 251 253 254 255 256 256 256 257 258 259 260 260 261 262 263 264 265 267 268 269 269 269 269 269 270 271 272 272 273 274 275 276 278 277 273 270 269 270 272 270 267 267 268 268 268 269 271 271 269 268 267 266 266 266 267 267 267 267 267
230 232 233 233 233 233 234 235 235 234 234 234 233 233 234 235 236 237 238 239 239 240 242 243 245 246 247 249 251 252 254 255 256 257 258 258 259 259 259 260 260 261 262 263 264 266 267 268 269 269 269 269 269 270 270 270 271 272 273 275 276 277 275 273 270 269 271 272 270 268 269 270 269 269 269 269 269 269 268 268 267 267 267 267 267 267 267 266
228 230 232 234 234 234 234 235 235 235 235 235 235 235 234 235 236 237 238 239 240 240 241 242 244 245 247 249 250 252 254 255 257 258 259 260 260 260 260 260 261 261 262 263 264 265 267 268 268 269 269 269 270 270 269 268 269 270 272 275 276 275 274 273 272 271 269 268 269 270 271 272 270 269 269 268 267 267 267 268 268 268 268 267 267 267 267 267
228 229 230 232 234 235 236 236 235 236 236 236 236 236 236 236 236 237 238 239 240 240 241 242 243 244 245 247 249 250 252 254 256 257 259 260 261 261 261 262 262 262 263 264 264 265 266 267 268 269 270 269 269 268 267 267 268 268 270 273 273 272 272 273 274 272 269 266 265 268 271 272 272 271 270 268 267 266 266 268 269 269 267 266 266 266 267 268
228 229 229 230 232 234 236 237 237 237 237 237 237 237 237 237 238 238 238 239 240 241 241 242 243 244 244 246 248 250 251 252 254 256 258 260 261 261 262 262 263 264 264 265 265 265 265 266 268 269 270 270 268 267 266 267 268 268 269 269 268 269 269 271 272 271 269 268 266 265 266 270 273 273 271 269 268 266 265 266 267 268 268 267 267 267 267 268
229 229 230 230 231 232 234 236 238 238 238 238 238 238 238 239 239 239 239 240 241 241 242 243 244 244 245 246 248 249 250 251 253 255 257 259 260 261 262 263 263 264 265 265 265 265 265 266 267 269 270 269 267 265 266 267 267 268 268 267 267 267 266 268 270 270 269 268 267 265 264 266 270 273 273 272 270 267 266 266 266 266 268 268 268 269 270 270
231 230 230 230 231 231 233 234 236 238 239 239 240 240 240 240 240 240 240 241 241 242 243 243 244 244 244 246 247 248 250 251 253 255 256 258 259 261 262 263 263 264 264 265 265 265 266 267 268 269 268 267 265 266 267 267 266 266 266 267 268 268 267 266 266 269 271 269 266 263 263 265 266 269 273 274 272 269 266 266 267 268 267 268 269 270 271 271
230 231 230 230 231 231 232 233 234 236 237 239 240 241 241 241 241 241 241 241 242 242 242 242 243 243 244 246 248 250 252 252 253 254 255 257 259 261 262 263 263 263 264 264 264 265 266 267 268 268 266 265 266 268 268 266 265 265 265 265 266 268 269 268 267 268 269 270 268 265 263 265 265 265 268 270 270 270 268 267 267 267 267 268 269 270 271 272
228 230 231 231 231 231 232 233 234 235 236 237 238 240 241 242 242 242 242 242 242 242 242 242 243 243 244 246 248 250 252 252 252 253 254 255 257 259 260 262 263 263 263 263 264 266 266 267 267 266 265 266 268 269 269 267 265 265 265 265 265 266 268 269 269 269 267 268 270 269 267 267 267 267 267 267 267 267 267 266 265 266 266 267 268 268 270 272
226 228 230 231 231 231 232 232 234 234 235 236 237 238 239 240 241 242 242 242 242 243 243 243 243 244 244 245 248 249 251 253 253 253 254 254 256 258 260 262 263 263 263 263 264 265 265 266 266 265 266 268 269 269 269 267 266 265 265 266 266 266 266 267 268 269 268 268 270 270 270 271 271 269 269 269 268 267 266 264 263 264 264 265 266 267 268 269
226 226 227 229 230 231 231 232 233 234 235 236 237 238 239 240 240 240 241 241 242 242 243 242 243 244 244 245 247 249 250 252 254 254 254 255 256 257 259 260 261 262 262 263 263 263 264 264 264 265 267 269 268 268 268 268 267 267 266 266 267 267 266 267 267 267 268 270 270 271 272 274 274 271 270 269 269 269 267 266 265 264 264 264 264 265 266 268
226 226 226 227 229 230 231 231 232 232 234 236 238 238 239 239 240 240 240 240 240 241 242 242 242 243 244 245 246 249 250 251 253 255 256 256 256 256 256 257 258 259 261 262 261 261 262 263 263 265 267 268 268 267 267 267 267 268 268 267 267 267 266 267 268 269 269 269 270 271 272 275 275 273 272 271 269 269 268 268 267 266 266 266 265 265 266 267
226 226 226 227 228 229 230 232 232 232 233 235 237 238 239 239 240 240 241 240 240 241 241 242 242 242 244 246 246 248 250 251 253 255 256 256 256 255 255 255 256 257 259 259 258 258 260 261 263 265 266 266 266 267 267 267 266 267 268 269 268 268 268 268 269 270 270 270 270 269 270 275 276 274 274 272 269 268 270 270 268 267 266 266 266 267 267 267
227 227 226 226 227 228 229 231 232 234 234 234 236 237 238 238 240 240 241 240 238 240 241 241 241 241 242 245 247 248 248 249 252 253 255 256 256 255 254 254 254 255 256 256 256 257 258 261 262 263 265 266 266 266 267 268 267 266 267 269 268 269 270 271 271 270 270 271 271 270 269 271 275 275 273 272 271 270 270 269 267 268 268 268 267 267 268 268
228 228 228 227 227 226 227 229 231 233 234 234 235 236 237 238 239 239 241 240 237 238 242 242 241 240 241 243 246 248 247 247 250 252 253 254 255 254 253 253 253 253 254 254 254 255 257 260 261 261 262 265 267 268 267 266 266 268 268 268 268 270 272 272 272 271 271 271 272 274 271 266 270 274 271 270 272 273 270 268 266 267 268 270 270 270 270 270
229 229 229 229 228 227 226 226 229 231 233 234 235 236 237 238 238 238 240 239 235 234 241 243 241 240 240 242 243 246 246 245 248 249 250 252 253 253 253 253 253 253 253 253 253 253 255 257 260 261 262 263 266 267 267 267 267 268 269 269 271 272 272 272 272 273 273 272 273 277 274 266 263 269 270 270 271 270 270 270 271 271 270 271 273 274 274 274
229 229 230 230 230 229 227 226 227 229 231 233 235 235 236 237 238 238 239 239 234 233 237 241 242 240 239 240 241 244 245 244 246 248 249 250 251 253 253 253 253 253 254 254 254 254 254 256 259 262 263 263 263 264 265 267 269 270 270 271 272 272 272 272 273 275 275 276 277 276 271 265 258 261 269 274 273 271 271 273 274 274 274 274 275 276 276 276
231 229 229 230 231 230 230 228 228 229 230 231 233 234 234 235 236 237 238 238 235 234 237 239 242 242 240 240 241 243 244 244 245 247 248 249 250 252 253 254 254 254 255 256 256 255 255 256 257 259 262 263 263 263 265 268 270 271 270 271 271 272 273 274 276 277 277 278 276 270 267 268 265 262 267 271 272 273 275 276 276 276 277 277 277 277 278 278
234 232 230 230 231 231 231 230 230 231 231 232 232 232 233 233 234 235 235 235 232 231 233 236 239 240 241 241 242 243 244 244 244 245 247 249 250 251 252 254 255 255 256 257 257 257 256 255 256 258 260 262 264 265 267 268 268 269 269 270 272 273 275 277 277 276 275 274 271 268 269 273 276 271 267 267 268 271 274 275 277 278 278 278 279 279 279 280
235 235 233 231 230 230 231 230 230 232 233 234 234 234 234 234 234 234 234 233 231 229 230 232 233 235 238 240 240 241 242 242 243 244 246 248 249 251 252 254 255 255 255 257 258 258 257 256 256 258 260 262 264 266 266 267 268 268 269 271 273 275 276 277 276 273 273 272 270 270 273 277 281 275 268 267 269 271 274 275 276 278 279 279 280 280 280 280
234 235 235 233 231 231 230 230 231 232 233 234 235 236 236 236 236 236 236 235 234 234 234 234 233 234 237 238 239 240 241 242 243 245 246 247 248 250 252 254 255 257 256 256 257 256 257 258 259 259 261 263 264 265 267 268 269 270 272 273 274 275 276 276 275 273 272 272 271 272 275 279 282 275 269 269 270 273 275 276 278 280 280 280 280 280 280 281
233 234 235 235 234 232 231 231 231 232 233 235 236 237 237 238 238 237 237 236 237 237 237 237 236 237 239 239 240 241 242 242 244 245 246 247 247 248 250 252 254 256 257 256 255 257 258 260 262 262 261 261 263 265 267 268 270 272 274 274 274 276 276 274 272 271 272 273 273 273 276 279 278 272 272 274 275 275 274 276 278 279 279 279 280 280 281 283
232 233 234 234 234 234 233 232 231 232 233 235 236 237 237 238 239 238 236 236 238 238 237 238 238 239 241 242 242 243 244 244 244 244 245 246 247 248 249 250 252 254 256 257 258 259 260 260 261 261 261 260 261 263 265 267 270 272 273 273 275 276 274 270 270 272 274 274 274 275 277 277 273 271 273 277 278 277 275 276 277 278 279 280 280 281 283 286
232 232 233 233 233 233 234 234 233 233 234 234 236 238 238 238 239 239 238 237 239 238 236 237 238 238 240 241 242 243 244 245 245 245 246 246 247 247 248 250 252 254 256 258 259 259 259 258 258 260 261 262 262 263 264 266 267 268 270 273 274 273 271 271 272 273 273 272 273 275 276 276 273 273 275 276 276 276 276 277 278 279 280 280 282 283 285 287
233 232 232 233 233 233 234 235 236 235 235 235 237 238 238 238 239 240 239 238 238 238 236 235 235 236 237 238 238 240 242 243 244 245 245 246 246 247 248 251 252 254 256 258 258 257 257 258 258 260 262 263 264 264 265 265 266 267 269 270 270 269 270 272 272 273 273 272 272 273 274 274 275 276 277 274 272 274 276 278 279 280 280 281 283 284 285 286
233 233 232 233 234 234 234 235 236 237 237 237 238 239 239 239 239 239 239 239 239 239 238 236 235 235 236 236 236 237 240 241 242 244 245 246 246 247 249 252 254 255 256 257 257 257 257 258 259 261 262 264 265 265 266 267 268 269 268 267 266 267 269 272 273 274 274 274 273 272 272 273 275 276 274 272 273 274 277 279 280 280 280 281 282 283 284 285
232 233 232 232 233 235 235 235 236 237 238 238 238 239 240 239 239 240 240 240 241 241 241 239 238 238 237 238 237 237 239 240 242 244 245 246 247 248 251 253 255 257 257 258 259 259 259 258 258 260 262 263 265 266 268 270 270 269 266 265 267 270 272 274 275 275 275 274 273 272 271 272 274 274 272 272 275 277 278 279 280 280 280 280 281 282 283 284
231 232 232 232 233 234 236 237 237 237 238 239 239 239 240 240 241 241 241 241 242 243 243 242 241 240 239 239 239 239 239 240 242 244 245 247 249 250 252 255 256 257 259 260 260 260 260 260 259 259 260 261 263 266 268 268 267 266 267 269 272 274 275 275 275 275 274 274 274 272 271 271 273 274 275 277 278 278 278 279 279 280 281 281 282 283 284 284
230 232 232 232 233 234 235 237 238 238 239 240 240 239 239 240 240 240 240 241 242 243 244 244 243 242 240 239 240 240 240 240 242 244 246 248 251 252 253 255 256 257 257 258 259 260 261 261 260 260 260 261 263 265 265 265 266 268 270 272 273 274 274 273 274 275 275 274 273 271 270 272 275 277 278 279 278 278 279 279 280 281 282 282 283 283 284 286
230 231 232 232 233 234 234 234 236 239 239 240 240 239 238 238 238 238 239 240 241 242 243 244 244 244 243 241 240 240 241 241 241 243 245 247 250 251 252 253 254 254 255 256 258 260 261 261 261 262 262 263 264 264 264 265 267 269 270 271 272 273 273 273 272 272 271 271 271 271 273 275 277 277 278 278 277 278 279 280 281 282 282 282 283 284 285 286
230 231 231 232 233 233 234 234 235 238 240 241 240 240 239 238 238 238 239 240 240 241 242 244 245 246 246 246 244 242 242 243 243 243 244 246 247 248 249 250 251 253 254 256 258 260 262 262 263 263 263 263 263 263 265 266 267 269 270 271 271 271 270 270 270 269 270 272 274 275 277 277 276 277 277 276 275 276 278 279 280 281 282 283 284 285 286 286
230 230 230 231 232 232 233 234 235 237 240 242 241 240 239 239 239 238 238 240 241 241 242 243 244 245 247 248 248 246 243 243 244 244 244 245 245 246 248 249 250 252 255 257 259 260 261 262 263 263 262 262 263 264 266 268 269 270 270 269 268 268 269 269 270 271 272 274 276 276 277 279 276 275 275 274 275 276 277 278 278 280 281 282 284 285 285 286
229 230 230 231 232 232 233 234 235 237 238 241 242 241 240 240 241 241 240 240 242 243 243 243 244 245 246 248 249 248 246 245 244 244 244 245 245 246 247 248 249 252 254 257 258 259 260 262 263 263 263 264 265 267 268 268 268 267 266 266 267 268 269 269 270 271 271 273 274 274 277 278 274 272 273 274 276 276 276 276 277 279 280 281 282 283 283 283
228 229 230 231 231 232 233 234 235 237 238 239 241 242 242 241 241 242 242 242 242 243 244 245 245 246 246 246 247 248 248 248 246 245 244 244 245 246 247 248 250 251 254 255 257 258 260 261 262 263 264 264 265 266 265 263 263 263 265 267 268 268 268 269 269 270 272 273 272 273 275 275 272 272 272 273 274 275 276 277 277 277 278 278 279 280 280 281
227 227 228 230 232 233 233 234 235 235 236 238 239 241 242 242 240 240 242 243 243 243 244 245 245 246 246 246 246 247 248 249 249 248 246 245 245 246 248 249 250 252 253 254 255 257 259 260 261 262 263 263 262 261 261 260 261 263 265 266 267 268 269 269 269 271 273 272 270 273 274 273 272 273 272 272 273 274 274 275 275 275 276 276 277 278 279 280
226 226 227 228 231 232 233 234 235 236 236 237 239 240 241 242 241 240 240 242 244 245 246 246 246 246 246 247 247 248 249 249 249 249 248 247 246 247 248 249 251 252 253 253 255 256 257 258 259 260 261 260 260 260 260 261 262 263 264 265 267 268 268 269 271 273 272 271 271 273 273 272 273 273 273 273 273 272 272 272 273 274 276 277 278 278 279 279
226 226 226 227 229 231 232 233 236 237 237 238 239 240 241 241 241 240 240 241 243 246 247 247 246 247 247 248 249 249 248 248 248 248 248 249 248 248 249 249 250 251 251 253 254 255 256 256 257 258 259 258 259 260 261 262 263 263 264 265 266 267 269 271 272 272 272 273 274 274 272 273 274 274 274 274 273 272 272 272 273 274 276 277 277 278 278 279
227 226 226 227 228 229 230 232 234 236 237 238 239 240 242 242 242 242 241 241 242 244 246 247 247 248 248 249 249 249 248 249 249 249 249 249 249 249 249 249 249 250 251 251 252 254 256 256 256 256 257 257 259 261 263 264 265 265 265 265 266 268 270 271 273 273 274 275 275 274 272 273 274 275 275 275 274 273 273 273 274 275 275 276 276 276 277 278
227 226 225 226 227 228 229 230 232 234 235 237 237 239 241 243 243 243 243 243 243 245 246 247 247 248 248 248 248 249 249 249 250 250 250 249 249 249 249 249 250 250 250 250 251 252 254 255 255 256 257 258 259 262 264 264 265 265 264 265 266 269 270 272 273 274 274 275 275 275 275 276 276 276 274 274 275 276 276 276 275 274 275 275 276 276 277 278
227 227 226 225 226 227 227 228 230 232 234 236 237 238 240 242 243 244 244 244 244 245 246 247 247 247 247 248 248 249 250 250 251 251 251 251 250 250 250 250 250 250 250 251 251 251 252 254 255 256 258 258 259 261 263 264 265 265 265 267 269 269 269 270 272 273 274 276 276 275 277 278 276 274 273 274 275 275 275 275 275 276 276 276 277 278 278 277
226 227 227 226 225 226 227 228 230 232 234 235 237 238 239 241 243 244 245 245 245 246 247 248 248 248 249 249 250 251 251 251 251 250 250 251 252 251 251 251 251 251 251 252 252 252 253 254 255 256 258 259 259 260 262 264 265 266 268 270 270 269 268 269 271 272 274 275 275 276 277 276 274 273 274 274 274 274 274 275 275 276 276 277 277 278 278 278
Height
10752 10755 10757 10760 10762 10765 10767 10770 10772 10774 10776 10778 10780 10781 10783 10785 10787 10789 10790 10791 10793 10794 10796 10797 10799 10800 10802 10803 10804 10805 10806 10807 10808 10809 10810 10810 10811 10812 10812 10813 10813 10814 10815 10816 10816 10817 10817 10817 10818 10818 10818 10818 10818 10819 10820 10820 10821 10822 10822 10822 10822 10822 10822 10821 10821 10820 10819 10820 10819 10818 10816 10816 10817 10815 10815 10815 10815 10816 10816 10815 10816 10816 10815 10816 10815 10815 10814 10814
10748 10750 10753 10755 10758 10760 10763 10765 10768 10770 10772 10774 10776 10778 10780 10781 10783 10785 10787 10788 10790 10791 10793 10794 10795 10797 10799 10800 10801 10803 10803 10804 10805 10806 10807 10808 10808 10809 10810 10810 10811 10812 10812 10813 10814 10814 10815 10815 10815 10816 10816 10816 10816 10817 10817 10818 10819 10819 10819 10820 10820 10820 10820 10820 10820 10818 10817 10818 10817 10816 10815 10814 10815 10813 10813 10813 10813 10814 10815 10814 10814 10814 10813 10814 10814 10813 10813 10812
10743 10746 10748 10751 10753 10756 10758 10761 10763 10766 10768 10770 10772 10774 10776 10778 10780 10782 10783 10785 10787 10788 10790 10791 10792 10794 10796 10797 10799 10800 10800 10801 10803 10803 10804 10805 10806 10807 10807 10808 10809 10809 10810 10811 10811 10812 10812 10813 10813 10813 10813 10813 10814 10814 10815 10816 10816 10817 10817 10818 10818 10817 10817 10818 10818 10816 10815 10816 10815 10815 10814 10812 10813 10812 10811 10811 10811 10812 10813 10812 10812 10811 10811 10812 10812 10812 10811 10811
10738 10741 10744 10746 10749 10751 10753 10756 10758 10761 10764 10766 10768 10770 10772 10774 10776 10778 10780 10782 10783 10785 10786 10787 10789 10791 10793 10794 10796 10797 10797 10798 10800 10801 10802 10803 10803 10804 10805 10805 10806 10807 10807 10808 10809 10809 10810 10810 10810 10810 10811 10811 10811 10812 10813 10813 10814 10814 10815 10816 10816 10815 10815 10816 10816 10814 10813 10813 10813 10813 10812 10811 10810 10810 10809 10809 10809 10810 10810 10811 10811 10809 10809 10810 10810 10810 10810 10810
10734 10736 10739 10742 10744 10746 10749 10751 10754 10756 10759 10761 10764 10766 10768 10770 10772 10775 10777 10778 10780 10781 10783 10784 10786 10788 10790 10791 10793 10794 10794 10795 10797 10798 10799 10800 10800 10801 10802 10803 10804 10804 10805 10805 10806 10807 10807 10808 10808 10808 10808 10808 10808 10809 10810 10810 10811 10811 10812 10813 10813 10812 10813 10813 10813 10812 10811 10811 10811 10811 10810 10809 10808 10808 10808 10807 10807 10807 10808 10808 10809 10808 10807 10808 10808 10808 10808 10808
10729 10731 10734 10737 10739 10742 10744 10747 10749 10752 10754 10756 10759 10761 10764 10766 10768 10770 10772 10774 10776 10778 10779 10781 10783 10785 10787 10788 10790 10790 10791 10792 10793 10794 10795 10796 10797 10798 10799 10800 10801 10801 10802 10802 10803 10804 10804 10805 10805 10805 10805 10805 10806 10807 10807 10807 10808 10808 10810 10811 10810 10810 10810 10811 10810 10810 10809 10808 10808 10809 10808 10807 10806 10806 10805 10806 10805 10805 10805 10806 10806 10807 10806 10806 10806 10806 10806 10806
10723 10726 10729 10732 10735 10737 10740 10742 10745 10747 10749 10752 10754 10757 10759 10761 10764 10766 10768 10770 10772 10774 10775 10777 10779 10781 10783 10785 10786 10787 10787 10788 10790 10791 10792 10793 10794 10795 10796 10797 10798 10798 10798 10799 10800 10801 10801 10801 10802 10803 10803 10803 10804 10804 10804 10805 10805 10806 10807 10808 10808 10807 10808 10808 10808 10807 10807 10806 10806 10806 10806 10805 10804 10804 10803 10804 10804 10802 10802 10803 10803 10804 10804 10804 10804 10804 10804 10804
10718 10721 10723 10726 10729 10732 10735 10738 10740 10743 10745 10747 10749 10752 10754 10757 10759 10761 10763 10766 10768 10770 10771 10773 10775 10777 10779 10781 10782 10784 10784 10785 10787 10788 10789 10790 10791 10792 10793 10794 10794 10794 10795 10796 10796 10797 10798 10798 10799 10800 10800 10800 10801 10801 10802 10802 10802 10803 10804 10805 10806 10805 10805 10806 10806 10805 10804 10804 10804 10804 10804 10802 10802 10801 10800 10802 10802 10800 10800 10800 10800 10801 10801 10801 10801 10802 10801 10801
10712 10715 10718 10720 10723 10726 10729 10732 10735 10738 10740 10742 10745 10747 10750 10751 10754 10757 10759 10761 10763 10765 10767 10769 10772 10774 10776 10777 10778 10780 10780 10781 10784 10785 10786 10787 10787 10789 10790 10791 10791 10791 10792 10792 10793 10794 10794 10796 10796 10797 10797 10797 10798 10799 10799 10800 10800 10801 10801 10802 10803 10803 10803 10803 10803 10803 10802 10802 10802 10802 10801 10799 10799 10798 10798 10800 10800 10798 10798 10798 10797 10797 10798 10798 10798 10799 10799 10799
10707 10709 10712 10715 10718 10721 10724 10727 10729 10732 10735 10737 10740 10742 10744 10747 10749 10752 10754 10756 10759 10761 10763 10765 10768 10770 10772 10773 10774 10775 10776 10778 10781 10781 10782 10783 10784 10785 10786 10787 10788 10788 10789 10789 10790 10790 10791 10792 10793 10794 10794 10795 10795 10796 10797 10797 10798 10799 10799 10799 10801 10801 10801 10800 10800 10800 10800 10800 10800 10800 10799 10796 10796 10795 10795 10797 10798 10796 10796 10795 10795 10795 10795 10795 10795 10795 10795 10795
10701 10704 10707 10709 10712 10715 10718 10721 10724 10726 10729 10732 10734 10737 10739 10742 10744 10747 10749 10752 10754 10757 10759 10761 10764 10766 10768 10769 10770 10771 10772 10775 10776 10776 10778 10779 10781 10782 10783 10784 10784 10785 10785 10786 10787 10787 10788 10789 10790 10791 10791 10792 10792 10792 10794 10795 10795 10796 10796 10797 10798 10799 10798 10797 10798 10798 10798 10798 10799 10798 10796 10793 10794 10793 10792 10794 10795 10794 10793 10793 10792 10792 10792 10792 10792 10792 10791 10791
10694 10698 10701 10704 10707 10710 10712 10715 10718 10720 10723 10726 10728 10731 10734 10736 10739 10741 10744 10747 10749 10752 10754 10756 10759 10761 10764 10765 10766 10767 10768 10770 10772 10772 10774 10775 10777 10778 10779 10780 10781 10781 10782 10783 10784 10784 10785 10785 10787 10787 10787 10788 10788 10789 10791 10792 10791 10792 10793 10794 10795 10796 10795 10794 10795 10795 10796 10796 10796 10796 10793 10791 10792 10791 10790 10791 10791 10791 10790 10789 10789 10789 10789 10789 10789 10788 10788 10788
10687 10691 10695 10698 10701 10704 10707 10709 10712 10714 10717 10720 10723 10725 10728 10731 10733 10736 10739 10741 10744 10747 10749 10752 10754 10756 10759 10760 10761 10763 10764 10765 10767 10768 10769 10771 10773 10774 10775 10776 10777 10778 10778 10779 10780 10781 10781 10782 10783 10783 10784 10785 10785 10786 10787 10788 10788 10789 10791 10791 10793 10794 10791 10790 10792 10793 10794 10794 10793 10794 10791 10789 10789 10788 10788 10789 10788 10788 10787 10786 10786 10786 10787 10786 10786 10785 10785 10784
10679 10683 10687 10691 10695 10698 10700 10703 10706 10708 10711 10714 10716 10719 10722 10725 10727 10730 10733 10736 10739 10742 10744 10747 10749 10752 10755 10756 10756 10758 10759 10761 10762 10763 10765 10767 10768 10769 10770 10771 10773 10773 10774 10775 10776 10777 10778 10778 10778 10779 10779 10781 10781 10781 10783 10784 10784 10785 10788 10788 10789 10790 10787 10786 10788 10790 10791 10791 10791 10791 10789 10786 10786 10786 10786 10786 10786 10785 10784 10783 10783 10784 10784 10783 10782 10782 10781 10781
10672 10676 10680 10684 10687 10691 10694 10696 10699 10702 10705 10708 10711 10714 10717 10719 10722 10724 10727 10730 10733 10736 10739 10742 10744 10747 10750 10751 10751 10753 10754 10756 10756 10758 10761 10763 10764 10764 10765 10767 10768 10768 10770 10771 10772 10773 10774 10773 10774 10775 10775 10777 10777 10777 10778 10780 10780 10782 10785 10786 10785 10785 10784 10783 10784 10786 10787 10788 10789 10789 10787 10783 10782 10783 10783 10783 10783 10783 10782 10781 10781 10781 10781 10780 10779 10779 10779 10778
10664 10668 10672 10676 10680 10683 10687 10690 10693 10695 10699 10701 10704 10708 10711 10713 10716 10719 10722 10724 10727 10730 10733 10737 10739 10742 10745 10746 10747 10748 10748 10749 10751 10754 10757 10758 10758 10758 10760 10763 10763 10764 10766 10766 10767 10768 10769 10769 10770 10771 10771 10772 10772 10772 10773 10776 10775 10778 10782 10782 10781 10781 10781 10780 10780 10781 10783 10784 10785 10786 10785 10781 10780 10780 10779 10780 10781 10780 10780 10778 10778 10778 10777 10777 10777 10776 10776 10775
10657 10661 10665 10668 10672 10676 10679 10683 10686 10689 10692 10695 10698 10702 10705 10708 10710 10713 10716 10718 10722 10724 10728 10732 10734 10737 10740 10741 10741 10740 10741 10744 10747 10751 10753 10753 10752 10753 10756 10758 10758 10760 10761 10761 10762 10763 10764 10765 10766 10767 10767 10765 10765 10766 10770 10772 10771 10774 10777 10776 10775 10776 10777 10777 10777 10777 10778 10780 10782 10782 10781 10779 10779 10777 10775 10777 10778 10777 10777 10776 10775 10775 10775 10774 10773 10773 10773 10772
10650 10654 10657 10660 10664 10668 10672 10675 10679 10682 10685 10689 10693 10696 10698 10701 10704 10707 10710 10712 10716 10719 10723 10727 10728 10731 10734 10734 10733 10733 10736 10740 10744 10747 10747 10747 10747 10749 10751 10752 10753 10755 10756 10756 10757 10757 10759 10761 10762 10763 10761 10757 10758 10763 10767 10768 10767 10769 10772 10771 10771 10770 10771 10773 10774 10774 10774 10776 10777 10778 10778 10776 10776 10775 10772 10773 10773 10773 10773 10773 10772 10772 10772 10771 10770 10770 10769 10768
10642 10646 10649 10653 10656 10660 10664 10668 10671 10675 10678 10683 10687 10690 10692 10694 10698 10701 10704 10707 10711 10713 10716 10719 10721 10725 10729 10729 10728 10730 10732 10736 10739 10741 10742 10742 10743 10744 10745 10746 10748 10749 10750 10750 10751 10753 10755 10757 10757 10755 10752 10751 10755 10760 10762 10762 10762 10764 10767 10767 10767 10765 10766 10767 10770 10772 10771 10771 10771 10773 10775 10773 10772 10773 10771 10770 10769 10769 10769 10769 10769 10767 10768 10767 10767 10766 10765 10764
10633 10637 10641 10646 10649 10653 10656 10660 10663 10667 10671 10676 10680 10682 10685 10688 10692 10695 10697 10701 10703 10704 10707 10713 10716 10719 10724 10725 10725 10726 10727 10730 10734 10735 10737 10738 10738 10739 10740 10742 10742 10743 10744 10744 10746 10749 10749 10752 10752 10746 10744 10747 10752 10755 10756 10757 10757 10759 10761 10762 10762 10762 10761 10761 10764 10767 10767 10768 10767 10767 10770 10769 10768 10769 10768 10766 10765 10765 10765 10765 10765 10764 10764 10764 10763 10763 10761 10760
10625 10628 10633 10637 10641 10645 10649 10652 10655 10660 10664 10669 10672 10674 10677 10681 10683 10687 10690 10693 10695 10697 10702 10707 10710 10714 10719 10721 10721 10721 10721 10724 10727 10728 10731 10732 10733 10734 10736 10737 10737 10737 10737 10738 10743 10744 10743 10747 10744 10737 10739 10745 10748 10749 10749 10751 10752 10754 10756 10756 10757 10757 10756 10757 10759 10761 10761 10764 10764 10763 10766 10765 10763 10764 10764 10762 10761 10760 10760 10760 10761 10760 10760 10760 10759 10759 10758 10757
10616 10620 10624 10628 10633 10637 10641 10644 10648 10652 10658 10662 10664 10666 10669 10672 10674 10678 10681 10684 10688 10691 10695 10700 10705 10709 10713 10715 10715 10715 10718 10720 10720 10722 10725 10727 10729 10730 10731 10732 10731 10730 10730 10734 10738 10737 10739 10741 10736 10731 10736 10740 10742 10743 10743 10745 10747 10748 10750 10751 10751 10750 10751 10753 10754 10756 10758 10760 10760 10759 10762 10762 10758 10759 10759 10758 10756 10754 10754 10755 10756 10756 10756 10755 10755 10755 10754 10753
10609 10613 10616 10620 10624 10628 10632 10636 10640 10646 10651 10654 10655 10656 10660 10663 10666 10668 10671 10676 10680 10683 10689 10694 10699 10703 10706 10709 10711 10711 10713 10715 10714 10716 10718 10722 10723 10723 10726 10726 10724 10724 10726 10730 10730 10730 10734 10733 10729 10729 10733 10733 10734 10736 10738 10739 10742 10743 10743 10745 10745 10743 10745 10748 10748 10751 10753 10755 10756 10755 10758 10758 10753 10753 10753 10751 10751 10748 10748 10750 10751 10751 10751 10750 10750 10750 10750 10749
10601 10605 10608 10613 10615 10620 10625 10627 10634 10641 10644 10645 10645 10647 10650 10654 10657 10660 10663 10666 10672 10678 10683 10687 10691 10699 10703 10704 10705 10706 10708 10709 10710 10711 10712 10714 10714 10715 10720 10718 10718 10720 10721 10721 10721 10725 10729 10726 10724 10727 10727 10726 10728 10730 10731 10733 10736 10738 10738 10739 10739 10737 10740 10743 10744 10746 10748 10750 10751 10751 10755 10755 10748 10748 10747 10743 10744 10744 10743 10744 10744 10745 10746 10745 10745 10745 10745 10744
10594 10596 10600 10604 10607 10613 10616 10622 10631 10634 10633 10635 10635 10637 10640 10645 10649 10651 10652 10655 10664 10673 10675 10679 10686 10694 10697 10697 10699 10700 10701 10703 10705 10705 10705 10706 10705 10708 10711 10710 10713 10715 10713 10712 10714 10721 10725 10721 10720 10723 10720 10719 10722 10724 10725 10725 10728 10732 10734 10733 10732 10733 10734 10737 10739 10741 10743 10744 10744 10745 10751 10752 10744 10741 10740 10736 10737 10738 10737 10737 10737 10740 10740 10739 10739 10739 10739 10738
10586 10589 10593 10595 10599 10604 10609 10619 10624 10621 10624 10627 10626 10628 10632 10637 10639 10640 10642 10642 10656 10670 10669 10673 10680 10686 10690 10691 10693 10690 10691 10699 10700 10697 10698 10697 10697 10699 10700 10703 10706 10707 10705 10703 10707 10717 10721 10715 10713 10716 10715 10714 10716 10718 10717 10717 10722 10727 10729 10726 10726 10729 10730 10732 10732 10734 10738 10739 10739 10739 10743 10747 10743 10735 10731 10731 10731 10730 10728 10728 10731 10735 10735 10733 10733 10734 10733 10733
10578 10582 10585 10588 10592 10596 10604 10612 10611 10611 10618 10617 10617 10620 10624 10628 10628 10631 10632 10630 10649 10667 10664 10665 10672 10679 10683 10684 10684 10680 10684 10695 10692 10688 10691 10690 10689 10689 10692 10697 10698 10699 10697 10694 10703 10715 10715 10709 10707 10709 10710 10711 10712 10710 10708 10710 10716 10722 10722 10720 10722 10724 10725 10726 10727 10728 10732 10734 10736 10736 10732 10738 10742 10731 10724 10726 10726 10721 10718 10721 10726 10729 10730 10729 10728 10728 10727 10727
10571 10574 10577 10581 10585 10590 10597 10601 10602 10606 10608 10607 10609 10612 10614 10618 10618 10622 10619 10619 10645 10664 10659 10660 10665 10670 10674 10674 10674 10673 10679 10687 10682 10681 10684 10682 10682 10682 10685 10689 10689 10690 10688 10689 10701 10708 10706 10705 10705 10703 10703 10706 10706 10703 10701 10704 10710 10716 10715 10714 10716 10717 10719 10721 10722 10723 10726 10729 10734 10730 10720 10725 10736 10731 10723 10721 10716 10711 10712 10716 10720 10722 10724 10724 10723 10722 10722 10721
10561 10565 10570 10573 10576 10583 10590 10595 10600 10599 10597 10597 10598 10599 10603 10605 10607 10609 10605 10614 10646 10660 10656 10657 10659 10661 10666 10666 10668 10669 10673 10677 10675 10675 10675 10673 10676 10677 10679 10680 10679 10683 10683 10686 10694 10698 10699 10702 10701 10698 10697 10698 10698 10697 10698 10700 10705 10709 10708 10708 10709 10711 10713 10715 10718 10718 10719 10724 10727 10719 10710 10716 10730 10731 10726 10719 10709 10704 10706 10708 10711 10715 10717 10718 10717 10716 10715 10714
10551 10556 10560 10563 10570 10578 10583 10590 10593 10590 10588 10588 10586 10587 10590 10591 10595 10593 10591 10614 10643 10649 10649 10651 10651 10654 10657 10658 10662 10663 10665 10668 10668 10667 10666 10667 10669 10670 10672 10672 10672 10676 10678 10681 10686 10690 10692 10693 10694 10694 10693 10691 10690 10692 10694 10696 10699 10701 10701 10703 10703 10705 10708 10710 10713 10712 10714 10719 10717 10709 10705 10711 10724 10728 10721 10715 10706 10701 10702 10702 10704 10708 10710 10710 10710 10710 10709 10708
10542 10547 10549 10555 10564 10568 10573 10581 10584 10582 10580 10578 10577 10578 10578 10582 10582 10577 10589 10620 10635 10636 10641 10643 10643 10647 10648 10650 10652 10653 10655 10657 10658 10659 10660 10661 10661 10662 10665 10665 10665 10668 10671 10676 10679 10681 10682 10684 10688 10689 10688 10687 10686 10686 10687 10688 10692 10694 10696 10698 10698 10700 10703 10705 10706 10705 10708 10712 10708 10703 10702 10707 10719 10721 10712 10707 10704 10699 10698 10697 10699 10702 10704 10704 10703 10703 10702 10701
10533 10537 10539 10547 10553 10557 10566 10573 10572 10570 10568 10567 10566 10567 10571 10572 10566 10572 10602 10624 10624 10629 10638 10637 10639 10642 10640 10640 10641 10643 10647 10649 10651 10652 10653 10654 10655 10657 10659 10659 10659 10659 10665 10671 10670 10670 10674 10677 10681 10684 10684 10683 10680 10679 10680 10682 10684 10687 10692 10693 10692 10695 10698 10699 10699 10698 10701 10705 10702 10699 10700 10705 10713 10711 10703 10701 10701 10698 10693 10690 10693 10697 10697 10697 10697 10696 10695 10694
10525 10528 10530 10538 10544 10550 10559 10559 10558 10560 10560 10559 10557 10557 10561 10556 10556 10580 10608 10616 10616 10627 10632 10631 10635 10635 10631 10632 10634 10637 10640 10641 10644 10644 10644 10646 10648 10652 10653 10653 10653 10652 10656 10660 10660 10664 10669 10672 10675 10676 10676 10675 10673 10674 10675 10676 10678 10682 10686 10686 10686 10689 10691 10692 10691 10690 10695 10697 10696 10696 10698 10704 10707 10701 10696 10695 10695 10694 10689 10686 10688 10691 10690 10691 10690 10689 10688 10688
10514 10517 10521 10529 10534 10539 10544 10544 10548 10551 10550 10550 10547 10545 10545 10544 10558 10584 10601 10608 10612 10618 10622 10623 10626 10626 10625 10626 10629 10631 10631 10633 10635 10635 10636 10638 10641 10646 10647 10647 10647 10646 10646 10650 10655 10660 10663 10667 10668 10664 10664 10667 10668 10669 10670 10670 10673 10678 10678 10678 10683 10683 10679 10682 10684 10685 10690 10691 10690 10691 10694 10699 10700 10695 10693 10691 10688 10685 10682 10682 10683 10684 10684 10684 10683 10682 10682 10682
10502 10506 10512 10518 10522 10529 10533 10534 10539 10541 10540 10541 10536 10530 10530 10542 10564 10581 10594 10604 10603 10603 10610 10612 10611 10616 10619 10619 10622 10623 10623 10625 10626 10626 10628 10631 10635 10639 10639 10639 10641 10640 10640 10644 10649 10652 10653 10658 10660 10655 10657 10659 10660 10663 10665 10666 10668 10671 10672 10674 10676 10671 10666 10672 10679 10680 10682 10684 10686 10688 10689 10692 10692 10691 10691 10687 10682 10676 10675 10676 10677 10677 10677 10676 10675 10676 10676 10676
10489 10494 10500 10505 10512 10521 10524 10525 10530 10530 10529 10530 10523 10516 10524 10548 10568 10576 10584 10591 10586 10586 10593 10594 10596 10603 10607 10610 10615 10616 10615 10617 10617 10616 10619 10622 10626 10630 10632 10634 10634 10634 10636 10637 10638 10641 10643 10649 10652 10651 10652 10653 10653 10656 10658 10659 10662 10665 10668 10668 10664 10658 10659 10665 10670 10672 10672 10675 10683 10684 10684 10686 10685 10687 10686 10679 10675 10671 10669 10670 10670 10670 10669 10668 10669 10669 10669 10669
10476 10482 10488 10495 10506 10513 10514 10517 10520 10518 10515 10515 10511 10509 10524 10548 10562 10565 10571 10574 10572 10570 10571 10578 10587 10592 10596 10601 10607 10609 10609 10608 10608 10608 10611 10613 10618 10624 10627 10629 10627 10627 10631 10628 10625 10630 10635 10642 10646 10647 10647 10647 10646 10648 10650 10653 10656 10658 10661 10658 10651 10652 10657 10657 10659 10663 10662 10665 10675 10678 10678 10680 10681 10682 10678 10670 10669 10668 10665 10664 10662 10662 10661 10661 10662 10661 10662 10661
10467 10470 10476 10488 10498 10502 10505 10508 10509 10506 10502 10498 10499 10506 10521 10540 10552 10556 10560 10561 10560 10556 10557 10570 10581 10584 10588 10593 10598 10602 10601 10600 10601 10603 10604 10606 10612 10620 10621 10621 10621 10621 10620 10617 10617 10623 10627 10634 10640 10642 10642 10641 10639 10641 10646 10649 10648 10647 10648 10647 10646 10649 10652 10650 10650 10655 10653 10655 10664 10669 10671 10674 10675 10674 10670 10666 10665 10664 10662 10658 10654 10653 10653 10653 10654 10654 10654 10654
10457 10457 10466 10482 10489 10491 10495 10497 10496 10494 10487 10482 10489 10505 10520 10536 10546 10547 10545 10547 10547 10545 10549 10563 10571 10572 10579 10585 10589 10593 10593 10595 10597 10596 10598 10600 10608 10616 10616 10613 10615 10614 10610 10608 10610 10613 10615 10622 10632 10637 10635 10633 10635 10637 10640 10639 10636 10635 10638 10642 10643 10643 10644 10643 10642 10644 10645 10646 10652 10658 10662 10668 10668 10665 10663 10663 10662 10658 10655 10651 10646 10645 10644 10645 10646 10646 10646 10646
10445 10445 10459 10475 10479 10481 10485 10485 10481 10476 10472 10471 10482 10503 10519 10526 10530 10531 10532 10535 10536 10536 10542 10553 10556 10558 10568 10575 10578 10582 10584 10587 10590 10590 10593 10598 10604 10611 10611 10608 10607 10606 10600 10597 10599 10603 10605 10612 10621 10626 10627 10629 10632 10632 10629 10626 10626 10630 10634 10637 10637 10635 10634 10634 10635 10637 10636 10636 10641 10643 10652 10663 10662 10658 10657 10656 10654 10650 10646 10643 10640 10638 10636 10636 10637 10637 10638 10638
10433 10436 10453 10467 10467 10469 10470 10467 10464 10460 10460 10463 10475 10497 10509 10510 10513 10519 10523 10525 10525 10527 10533 10540 10543 10548 10557 10563 10568 10573 10574 10576 10582 10585 10588 10595 10601 10605 10604 10601 10597 10594 10588 10587 10592 10596 10597 10601 10608 10614 10621 10625 10624 10621 10619 10619 10622 10625 10627 10629 10629 10627 10624 10624 10627 10629 10624 10625 10630 10631 10643 10660 10657 10650 10651 10648 10645 10642 10639 10636 10633 10630 10628 10628 10628 10629 10630 10631
10420 10427 10446 10454 10451 10453 10453 10452 10453 10451 10450 10456 10471 10488 10494 10496 10503 10510 10512 10512 10514 10518 10524 10530 10536 10541 10546 10551 10557 10563 10564 10567 10573 10578 10584 10590 10595 10595 10593 10590 10586 10583 10580 10582 10588 10591 10587 10589 10598 10606 10612 10613 10611 10611 10612 10614 10616 10617 10621 10623 10620 10617 10615 10613 10615 10618 10616 10620 10626 10623 10635 10654 10651 10642 10642 10639 10636 10635 10633 10630 10626 10623 10621 10619 10619 10621 10621 10623
10408 10421 10436 10438 10436 10439 10439 10439 10442 10442 10443 10452 10464 10472 10477 10484 10492 10496 10497 10500 10504 10510 10515 10521 10528 10532 10536 10540 10543 10547 10553 10557 10562 10570 10578 10582 10584 10585 10583 10580 10579 10577 10576 10579 10584 10584 10579 10579 10587 10594 10599 10601 10602 10605 10608 10609 10609 10610 10611 10610 10606 10607 10608 10603 10605 10609 10610 10619 10622 10615 10627 10645 10642 10633 10630 10628 10627 10627 10627 10624 10620 10617 10616 10613 10612 10612 10612 10613
10400 10412 10419 10422 10424 10424 10424 10427 10432 10436 10442 10448 10451 10456 10466 10476 10480 10483 10489 10494 10498 10502 10505 10511 10517 10522 10526 10528 10528 10532 10539 10545 10552 10561 10567 10569 10573 10575 10571 10570 10572 10572 10573 10576 10577 10574 10570 10572 10576 10581 10587 10592 10597 10600 10603 10602 10598 10595 10596 10597 10599 10601 10598 10596 10598 10598 10603 10616 10614 10608 10622 10634 10628 10623 10622 10619 10619 10618 10617 10617 10615 10613 10611 10607 10605 10604 10603 10603
10390 10399 10402 10408 10412 10409 10411 10421 10426 10429 10435 10439 10441 10446 10455 10463 10470 10476 10481 10485 10489 10491 10494 10501 10508 10511 10513 10515 10517 10520 10526 10533 10542 10549 10553 10557 10563 10565 10562 10562 10565 10566 10568 10569 10567 10564 10562 10564 10567 10571 10577 10584 10590 10592 10591 10587 10582 10583 10589 10591 10591 10591 10588 10588 10589 10588 10599 10608 10603 10602 10616 10620 10614 10613 10614 10611 10610 10610 10608 10607 10607 10606 10604 10602 10600 10597 10596 10595
10376 10384 10390 10396 10398 10397 10403 10411 10413 10415 10422 10428 10431 10435 10441 10448 10460 10469 10469 10470 10476 10481 10485 10492 10496 10497 10500 10504 10507 10511 10518 10526 10531 10536 10542 10549 10554 10555 10554 10554 10556 10558 10559 10559 10558 10556 10555 10556 10560 10563 10567 10574 10579 10578 10575 10573 10574 10579 10583 10582 10581 10582 10581 10578 10579 10587 10594 10591 10591 10601 10605 10603 10604 10603 10601 10602 10602 10601 10600 10598 10597 10596 10594 10594 10594 10591 10590 10589
10360 10370 10379 10385 10386 10387 10393 10399 10400 10403 10414 10419 10419 10424 10430 10436 10445 10452 10455 10461 10467 10472 10476 10480 10482 10483 10489 10497 10501 10505 10513 10517 10518 10524 10531 10537 10541 10544 10545 10545 10548 10549 10549 10548 10549 10548 10546 10548 10554 10555 10556 10561 10566 10563 10561 10564 10569 10572 10574 10574 10574 10573 10571 10569 10575 10585 10580 10573 10587 10599 10590 10590 10597 10591 10588 10592 10591 10590 10590 10588 10587 10587 10585 10586 10586 10583 10582 10583
10345 10358 10370 10372 10372 10374 10382 10391 10393 10397 10406 10409 10408 10413 10420 10424 10430 10437 10447 10457 10460 10460 10462 10464 10468 10475 10485 10493 10495 10496 10501 10502 10504 10514 10522 10526 10530 10534 10535 10535 10537 10538 10538 10539 10539 10536 10535 10541 10548 10546 10544 10550 10553 10549 10551 10556 10560 10563 10565 10568 10567 10564 10563 10565 10569 10574 10567 10565 10582 10587 10577 10583 10588 10579 10578 10580 10576 10577 10579 10577 10579 10579 10577 10577 10576 10574 10574 10573
10332 10346 10357 10357 10358 10365 10375 10383 10385 10385 10392 10395 10396 10402 10407 10413 10422 10430 10439 10447 10447 10447 10449 10453 10463 10475 10481 10483 10481 10482 10488 10492 10497 10507 10514 10515 10517 10520 10522 10523 10525 10528 10529 10530 10530 10527 10525 10531 10537 10534 10532 10539 10543 10541 10544 10547 10548 10553 10556 10558 10559 10559 10559 10559 10561 10563 10558 10560 10572 10569 10565 10576 10578 10571 10570 10566 10560 10565 10568 10569 10571 10570 10568 10567 10565 10565 10566 10565
10319 10331 10343 10344 10347 10358 10366 10371 10373 10373 10377 10379 10382 10391 10396 10403 10413 10421 10426 10431 10435 10439 10441 10446 10460 10468 10468 10467 10467 10469 10478 10485 10490 10498 10501 10500 10502 10507 10509 10511 10514 10517 10518 10519 10521 10520 10517 10518 10523 10523 10521 10531 10539 10536 10533 10534 10536 10539 10543 10549 10555 10557 10554 10550 10553 10553 10547 10552 10561 10552 10552 10570 10571 10560 10558 10553 10551 10555 10556 10557 10559 10557 10557 10557 10554 10556 10557 10556
10307 10316 10326 10330 10337 10349 10354 10357 10361 10361 10362 10365 10372 10383 10389 10395 10405 10411 10412 10417 10423 10427 10431 10438 10450 10454 10450 10451 10453 10459 10472 10479 10481 10485 10485 10483 10488 10495 10496 10499 10503 10505 10506 10508 10510 10512 10510 10509 10514 10514 10511 10523 10534 10526 10520 10523 10522 10522 10532 10545 10551 10549 10544 10541 10544 10543 10538 10544 10548 10539 10545 10562 10557 10545 10545 10546 10545 10545 10543 10544 10545 10545 10547 10545 10544 10546 10546 10545
10294 10300 10308 10315 10326 10337 10341 10344 10347 10346 10350 10358 10366 10375 10381 10387 10394 10397 10397 10402 10410 10417 10422 10430 10438 10438 10435 10439 10446 10457 10466 10466 10464 10468 10471 10471 10476 10481 10483 10487 10491 10493 10496 10498 10499 10501 10503 10503 10507 10505 10501 10512 10522 10515 10511 10513 10506 10508 10529 10543 10539 10532 10531 10533 10536 10537 10534 10533 10533 10532 10540 10546 10538 10534 10538 10536 10532 10532 10533 10534 10535 10535 10535 10533 10533 10534 10533 10532